KX4BE Weather Reports


Display with metric or nautical units.
time (UTC)temp
F
wind
direction
speed
MPH
gust
MPH
rain 1hr
in
rain 24hr
in
rain mn
in
humidity
%
barometer
mb
20260506132835 64 167 0.0 2.0 0.14 0.16 0.16 97 1016.1
20260506131844 64 167 0.0 1.0 0.11 0.13 0.13 97 1015.7
20260506131344 64 167 0.0 3.0 0.09 0.11 0.11 97 1015.8
20260506130842 64 167 0.0 3.0 0.08 0.10 0.10 97 1015.7
20260506130342 64 161 0.0 3.0 0.08 0.10 0.10 96 1015.6
20260506125835 64 215 0.0 2.0 0.07 0.09 0.09 96 1015.3
20260506125336 64 171 0.0 3.0 0.07 0.09 0.09 96 1015.5
20260506124832 64 171 1.0 3.0 0.06 0.08 0.08 96 1015.4
20260506124333 64 171 0.0 0.0 0.04 0.06 0.06 96 1015.4
20260506123831 64 171 0.0 0.0 0.03 0.04 0.04 96 1015.1
20260506123353 64 171 0.0 0.0 0.02 0.03 0.03 95 1014.9
20260506122908 64 171 0.0 0.0 0.01 0.02 0.02 95 1015.0
20260506122348 64 171 0.0 0.0 0.01 0.02 0.02 95 1014.6
20260506121845 64 171 0.0 0.0 0.01 0.02 0.02 95 1014.7
20260506121348 64 171 0.0 0.0 0.01 0.02 0.02 95 1014.8
20260506120844 64 171 0.0 0.0 0.00 0.00 0.02 94 1014.4
20260506120344 64 171 0.0 0.0 0.02 0.02 0.02 94 1014.6
20260506115835 65 171 0.0 0.0 0.02 0.02 0.02 94 1014.5
20260506115334 65 171 0.0 0.0 0.02 0.02 0.02 93 1014.4
20260506114831 65 171 0.0 0.0 0.02 0.02 0.02 93 1014.3
20260506114351 65 171 0.0 0.0 0.02 0.02 0.02 92 1014.3
20260506113847 65 171 0.0 0.0 0.01 0.01 0.01 92 1013.9
20260506113346 65 171 0.0 0.0 0.01 0.01 0.01 92 1014.3
20260506112841 65 171 0.0 2.0 0.01 0.01 0.01 91 1014.3
20260506112340 66 171 0.0 2.0 0.01 0.01 0.01 91 1014.3
20260506111837 66 171 0.0 3.0 0.01 0.01 0.01 91 1014.0
20260506111336 66 171 1.0 4.0 0.01 0.01 0.01 90 1013.8
20260506110834 66 118 2.0 3.0 0.01 0.01 0.01 90 1014.1
20260506105831 66 253 1.0 2.0 0.00 0.00 0.00 89 1014.1
20260506105351 66 294 1.0 2.0 0.00 0.00 0.00 89 1013.8
20260506104846 66 294 0.0 3.0 0.00 0.00 0.00 88 1013.6
20260506104347 66 294 1.0 3.0 0.00 0.00 0.00 88 1013.7
20260506103846 66 151 1.0 2.0 0.00 0.00 0.00 87 1013.6
20260506103346 66 152 0.0 3.0 0.00 0.00 0.00 87 1013.6
20260506102842 67 151 0.0 5.0 0.00 0.00 0.00 86 1013.4
20260506102402 67 153 1.0 3.0 0.00 0.00 0.00 85 1013.1
20260506101859 67 172 0.0 2.0 0.00 0.00 0.00 84 1013.1
20260506101338 67 172 0.0 8.0 0.00 0.00 0.00 84 1013.1
20260506100836 67 173 1.0 8.0 0.00 0.00 0.00 83 1013.2
20260506100337 68 245 3.0 9.0 0.00 0.00 0.00 82 1013.2
20260506095830 68 140 3.0 9.0 0.00 0.00 0.00 82 1013.3
20260506095410 68 184 1.0 3.0 0.00 0.00 0.00 81 1013.2
20260506094847 68 21 1.0 8.0 0.00 0.00 0.00 80 1013.2
20260506094406 68 255 2.0 8.0 0.00 0.00 0.00 80 1012.8
20260506093843 68 135 3.0 9.0 0.00 0.00 0.00 79 1012.8
20260506093344 68 44 3.0 9.0 0.00 0.00 0.00 79 1013.0
20260506092840 68 151 1.0 9.0 0.00 0.00 0.00 79 1013.2
20260506092340 68 229 2.0 6.0 0.00 0.00 0.00 78 1013.2
20260506091839 68 169 2.0 10.0 0.00 0.00 0.00 78 1013.2
20260506091339 68 188 2.0 10.0 0.00 0.00 0.00 78 1013.0
20260506090837 68 173 3.0 10.0 0.00 0.00 0.00 78 1013.0
20260506090338 68 142 3.0 5.0 0.00 0.00 0.00 78 1013.1
20260506085832 68 136 2.0 4.0 0.00 0.00 0.00 77 1013.1
20260506085330 68 175 0.0 4.0 0.00 0.00 0.00 77 1013.3
20260506084849 68 175 2.0 4.0 0.00 0.00 0.00 77 1013.2
20260506084348 68 190 0.0 5.0 0.00 0.00 0.00 77 1013.1
20260506083847 68 204 3.0 5.0 0.00 0.00 0.00 77 1013.0
20260506083348 68 182 1.0 3.0 0.00 0.00 0.00 77 1013.0
20260506082842 68 182 1.0 3.0 0.00 0.00 0.00 76 1012.7
20260506082342 68 182 0.0 4.0 0.00 0.00 0.00 76 1012.7
20260506081843 68 182 1.0 4.0 0.00 0.00 0.00 76 1012.8
20260506081343 68 247 1.0 4.0 0.00 0.00 0.00 76 1012.7
20260506080841 68 119 2.0 4.0 0.00 0.00 0.00 76 1012.8
20260506080403 68 187 1.0 3.0 0.00 0.00 0.00 75 1012.7
20260506073351 68 174 1.0 2.0 0.00 0.00 0.00 73 1012.6
20260506072846 68 174 0.0 2.0 0.00 0.00 0.00 73 1012.4
20260506072345 68 175 0.0 3.0 0.00 0.00 0.00 73 1012.6
20260506071902 68 174 0.0 2.0 0.00 0.00 0.00 72 1012.6
20260506071333 68 174 1.0 2.0 0.00 0.00 0.00 72 1012.6
20260506070849 68 174 1.0 2.0 0.00 0.00 0.00 72 1012.5
20260506070349 68 175 0.0 3.0 0.00 0.00 0.00 72 1012.7
20260506062332 69 175 1.0 3.0 0.00 0.00 0.00 71 1013.0
20260506061831 69 134 2.0 3.0 0.00 0.00 0.00 70 1013.1
20260506061351 69 206 1.0 4.0 0.00 0.00 0.00 70 1013.4
20260506060846 69 206 2.0 4.0 0.00 0.00 0.00 70 1013.6
20260506060347 69 192 2.0 4.0 0.00 0.00 0.00 69 1013.6
20260506051330 69 144 1.0 5.0 0.00 0.00 0.00 68 1013.8
20260506050848 69 197 2.0 5.0 0.00 0.00 0.00 67 1013.9
20260506050349 69 199 2.0 4.0 0.00 0.00 0.00 67 1013.9
20260506044836 70 207 2.0 5.0 0.00 0.00 0.00 66 1014.1
20260506044336 70 217 1.0 4.0 0.00 0.00 0.00 66 1014.1
20260506043833 70 142 2.0 6.0 0.00 0.00 0.00 66 1013.9
20260506043333 70 213 3.0 6.0 0.00 0.00 0.00 66 1013.9
20260506042845 70 184 2.0 3.0 0.00 0.00 0.00 65 1014.0
20260506042345 70 158 0.0 4.0 0.00 0.00 0.00 65 1014.0
20260506041842 70 159 0.0 5.0 0.00 0.00 0.00 65 1014.0
20260506041342 70 161 2.0 4.0 0.00 0.00 0.00 64 1013.9
20260506040841 70 168 1.0 6.0 0.00 0.00 0.00 64 1014.0
20260506040342 71 159 2.0 6.0 0.00 0.00 0.00 64 1014.0
20260506035836 71 180 1.0 9.0 0.00 0.00 0.00 64 1013.8
20260506035338 71 180 1.0 9.0 0.00 0.00 0.00 64 1013.8
20260506034835 71 150 3.0 9.0 0.00 0.00 0.00 63 1014.0
20260506034335 71 157 3.0 8.0 0.00 0.00 0.00 63 1014.1
20260506033830 71 217 3.0 10.0 0.00 0.00 0.00 63 1014.2
20260506033351 71 179 2.0 10.0 0.00 0.00 0.00 63 1014.2
20260506032847 71 223 2.0 7.0 0.00 0.00 0.00 63 1014.5
20260506032346 71 203 3.0 8.0 0.00 0.00 0.00 63 1014.3
20260506031842 70 187 3.0 8.0 0.00 0.00 0.00 63 1014.3
20260506031341 71 182 1.0 5.0 0.00 0.00 0.00 64 1014.3
20260506030838 71 236 1.0 5.0 0.00 0.00 0.00 64 1014.2
20260506030400 71 205 1.0 4.0 0.00 0.00 0.00 63 1014.2
20260506025834 71 206 2.0 4.0 0.00 0.00 0.00 63 1014.1
20260506025334 71 178 0.0 5.0 0.00 0.00 0.00 63 1014.3
20260506024831 71 172 0.0 8.0 0.00 0.00 0.00 63 1014.1
20260506024351 71 142 1.0 8.0 0.00 0.00 0.00 62 1014.4
20260506023910 71 185 2.0 9.0 0.00 0.00 0.00 63 1014.4
20260506023350 71 236 2.0 9.0 0.00 0.00 0.00 63 1014.6
20260506022845 71 217 3.0 8.0 0.00 0.00 0.00 63 1014.4
20260506022349 71 186 4.0 11.0 0.00 0.00 0.00 64 1014.3
20260506021848 70 181 3.0 8.0 0.00 0.00 0.00 63 1014.2
20260506021403 70 218 2.0 8.0 0.00 0.00 0.00 64 1014.1
20260506020841 70 234 3.0 8.0 0.00 0.00 0.00 63 1014.0
20260506020341 70 141 2.0 5.0 0.00 0.00 0.00 64 1014.0
20260506015837 70 248 2.0 5.0 0.00 0.00 0.00 64 1014.0
20260506015337 70 221 1.0 6.0 0.00 0.00 0.00 63 1013.9
20260506014831 70 209 1.0 5.0 0.00 0.00 0.00 64 1013.9
20260506014331 70 229 0.0 2.0 0.00 0.00 0.00 62 1013.7
20260506013849 70 225 0.0 4.0 0.00 0.00 0.00 62 1013.7
20260506013350 70 225 1.0 4.0 0.00 0.00 0.00 62 1013.5
20260506012904 70 218 0.0 1.0 0.00 0.00 0.00 61 1013.4
20260506012345 70 218 0.0 2.0 0.00 0.00 0.00 61 1013.4
20260506011841 70 218 1.0 4.0 0.00 0.00 0.00 61 1013.4
20260506011341 70 217 1.0 4.0 0.00 0.00 0.00 61 1013.4
20260506010837 70 228 1.0 3.0 0.00 0.00 0.00 60 1013.3
20260506010357 71 229 1.0 5.0 0.00 0.00 0.00 59 1013.2
20260506005835 71 210 3.0 5.0 0.00 0.00 0.00 59 1013.2
20260506005335 71 215 2.0 7.0 0.00 0.00 0.00 58 1013.1
20260506004831 71 219 3.0 9.0 0.00 0.00 0.00 58 1013.1
20260506004411 71 217 1.0 9.0 0.00 0.00 0.00 59 1013.1
20260506003846 71 198 2.0 7.0 0.00 0.00 0.00 58 1013.1
20260506003345 71 155 3.0 7.0 0.00 0.00 0.00 58 1013.1
20260506002837 71 224 3.0 7.0 0.00 0.00 0.00 58 1013.2
20260506002337 71 96 2.0 7.0 0.00 0.00 0.00 58 1013.2
20260506001855 71 270 2.0 7.0 0.00 0.00 0.00 58 1013.3
20260506001333 71 155 2.0 7.0 0.00 0.00 0.00 57 1013.4
20260506000832 71 182 1.0 7.0 0.00 0.00 0.00 57 1013.4
20260506000354 71 202 1.0 8.0 0.00 0.00 0.00 58 1013.4
20260505235842 70 191 3.0 8.0 0.00 0.00 0.00 58 1013.5
20260505235342 70 171 4.0 8.0 0.00 0.00 0.00 59 1013.7
20260505234900 70 250 2.0 8.0 0.00 0.00 0.00 59 1013.5
20260505234339 70 200 2.0 8.0 0.00 0.00 0.00 60 1013.5
20260505233837 70 205 2.0 4.0 0.00 0.00 0.00 61 1013.6
20260505233337 70 172 2.0 8.0 0.00 0.00 0.00 61 1013.4
20260505232834 70 163 1.0 8.0 0.00 0.00 0.00 61 1013.5
20260505232334 70 231 3.0 9.0 0.00 0.00 0.00 63 1013.5
20260505231833 70 221 3.0 9.0 0.00 0.00 0.00 64 1013.6
20260505231334 70 248 2.0 7.0 0.00 0.00 0.00 68 1013.8
20260505230831 70 159 1.0 4.0 0.00 0.00 0.00 67 1013.6
20260505230351 71 206 1.0 5.0 0.00 0.00 0.00 66 1013.6
20260505225845 71 184 2.0 5.0 0.00 0.00 0.00 63 1013.5
20260505225342 71 215 2.0 7.0 0.00 0.00 0.00 61 1013.6
20260505224840 71 215 1.0 7.0 0.00 0.00 0.00 62 1013.3
20260505224400 71 200 1.0 7.0 0.00 0.00 0.00 62 1013.3
20260505223837 71 196 2.0 4.0 0.00 0.00 0.00 62 1013.3
20260505223338 71 213 1.0 3.0 0.00 0.00 0.00 63 1013.8
20260505222853 71 188 1.0 3.0 0.00 0.00 0.00 60 1013.6
20260505222332 71 215 1.0 6.0 0.00 0.00 0.00 58 1013.7
20260505221909 71 216 1.0 6.0 0.00 0.00 0.00 58 1013.6
20260505221348 71 248 2.0 7.0 0.00 0.00 0.00 59 1013.5
20260505220845 71 271 2.0 13.0 0.00 0.00 0.00 57 1013.5
20260505220435 71 234 6.0 13.0 0.00 0.00 0.00 58 1013.7
20260505215852 71 202 3.0 5.0 0.00 0.00 0.00 61 1013.8
20260505215331 71 153 2.0 8.0 0.00 0.00 0.00 59 1013.7
20260505214848 71 200 4.0 9.0 0.00 0.00 0.00 66 1013.5
20260505214344 71 249 3.0 9.0 0.00 0.00 0.00 63 1013.8
20260505213847 71 217 3.0 4.0 0.00 0.00 0.00 65 1013.5
20260505213347 72 149 2.0 7.0 0.00 0.00 0.00 64 1013.4
20260505212839 72 153 1.0 7.0 0.00 0.00 0.00 65 1013.5
20260505212340 72 227 2.0 9.0 0.00 0.00 0.00 64 1013.8
20260505211837 72 221 4.0 9.0 0.00 0.00 0.00 61 1013.9
20260505211337 73 186 4.0 12.0 0.00 0.00 0.00 55 1014.0
20260505210832 74 156 5.0 12.0 0.00 0.00 0.00 55 1014.0
20260505210333 74 195 2.0 8.0 0.00 0.00 0.00 55 1014.5
20260505205846 75 202 3.0 11.0 0.00 0.00 0.00 51 1014.3
20260505205346 75 152 5.0 11.0 0.00 0.00 0.00 51 1014.3
20260505204905 75 138 3.0 10.0 0.00 0.00 0.00 51 1014.2
20260505204343 76 242 2.0 10.0 0.00 0.00 0.00 48 1014.3
20260505203839 76 219 3.0 8.0 0.00 0.00 0.00 49 1014.1
20260505203340 76 233 3.0 7.0 0.00 0.00 0.00 48 1014.3
20260505202835 76 176 3.0 7.0 0.00 0.00 0.00 52 1014.3
20260505202355 77 192 1.0 10.0 0.00 0.00 0.00 50 1014.5
20260505201831 77 294 2.0 10.0 0.00 0.00 0.00 48 1014.6
20260505201335 77 235 3.0 11.0 0.00 0.00 0.00 47 1014.6
20260505200832 77 263 3.0 14.0 0.00 0.00 0.00 47 1014.6
20260505200351 78 141 6.0 14.0 0.00 0.00 0.00 45 1014.6
20260505195842 78 168 5.0 15.0 0.00 0.00 0.00 43 1014.7
20260505195341 78 281 4.0 20.0 0.00 0.00 0.00 43 1014.7
20260505194839 79 130 3.0 16.0 0.00 0.00 0.00 43 1014.7
20260505194338 79 221 4.0 16.0 0.00 0.00 0.00 44 1014.7
20260505193836 80 182 7.0 0.0 0.00 0.00 0.00 41 1014.4
20260505193336 80 198 8.0 23.0 0.00 0.00 0.00 41 1014.8
20260505192847 80 181 6.0 19.0 0.00 0.00 0.00 41 1015.1
20260505192348 80 165 6.0 19.0 0.00 0.00 0.00 42 1015.0
20260505191847 79 202 5.0 16.0 0.00 0.00 0.00 41 1015.3
20260505191346 79 268 6.0 19.0 0.00 0.00 0.00 41 1015.4
20260505190842 79 196 6.0 19.0 0.00 0.00 0.00 40 1015.3
20260505190343 79 249 4.0 16.0 0.00 0.00 0.00 42 1015.1
20260505185835 79 271 4.0 17.0 0.00 0.00 0.00 44 1015.1
20260505185335 79 24 6.0 15.0 0.00 0.00 0.00 43 1015.3
20260505184838 79 186 4.0 19.0 0.00 0.00 0.00 45 1015.5
20260505184337 80 198 10.0 19.0 0.00 0.00 0.00 42 1015.3
20260505183833 80 147 7.0 12.0 0.00 0.00 0.00 44 1015.4
20260505183353 80 246 4.0 11.0 0.00 0.00 0.00 46 1015.5
20260505182846 79 286 3.0 20.0 0.00 0.00 0.00 46 1015.4
20260505182403 79 70 3.0 20.0 0.00 0.00 0.00 48 1015.6
20260505181839 79 163 5.0 16.0 0.00 0.00 0.00 47 1015.8
20260505181339 79 188 8.0 14.0 0.00 0.00 0.00 46 1015.9
20260505180857 79 196 6.0 12.0 0.00 0.00 0.00 47 1015.9
20260505180337 79 191 7.0 10.0 0.00 0.00 0.00 47 1016.0
20260505175852 78 206 3.0 18.0 0.00 0.00 0.00 48 1015.9
20260505175352 79 185 4.0 11.0 0.00 0.00 0.00 48 1015.8
20260505174848 79 178 3.0 15.0 0.00 0.00 0.00 49 1015.9
20260505174348 78 132 5.0 15.0 0.00 0.00 0.00 48 1016.0
20260505173845 78 207 2.0 12.0 0.00 0.00 0.00 49 1016.0
20260505173346 78 232 6.0 12.0 0.00 0.00 0.00 49 1016.2
20260505172841 77 158 4.0 9.0 0.00 0.00 0.00 51 1016.1
20260505172341 77 163 4.0 11.0 0.00 0.00 0.00 52 1016.2
20260505171842 76 231 4.0 11.0 0.00 0.00 0.00 54 1016.2
20260505171343 76 201 4.0 10.0 0.00 0.00 0.00 53 1016.4
20260505170900 76 178 2.0 12.0 0.00 0.00 0.00 54 1016.8
20260505170340 76 203 5.0 11.0 0.00 0.00 0.00 52 1016.8
20260505165853 77 159 5.0 8.0 0.00 0.00 0.00 52 1017.0
20260505165351 77 76 2.0 12.0 0.00 0.00 0.00 52 1016.9
20260505164846 77 163 3.0 9.0 0.00 0.00 0.00 53 1017.0
20260505164342 77 22 3.0 9.0 0.00 0.00 0.00 54 1017.0
20260505163901 77 200 4.0 9.0 0.00 0.00 0.00 54 1017.0
20260505163340 76 254 4.0 8.0 0.00 0.00 0.00 56 1017.1
20260505162834 75 142 3.0 7.0 0.00 0.00 0.00 57 1017.2
20260505162335 74 46 1.0 8.0 0.00 0.00 0.00 59 1017.3
20260505161834 74 201 1.0 8.0 0.00 0.00 0.00 61 1017.3
20260505161333 74 167 2.0 6.0 0.00 0.00 0.00 59 1017.2
20260505160910 74 238 1.0 6.0 0.00 0.00 0.00 59 1017.2
20260505160351 74 210 3.0 6.0 0.00 0.00 0.00 59 1017.2
20260505153344 72 190 4.0 8.0 0.00 0.00 0.00 61 1017.5
20260505152837 71 219 2.0 10.0 0.00 0.00 0.00 64 1017.5
20260505152336 71 253 2.0 10.0 0.00 0.00 0.00 62 1017.6
20260505151833 71 140 1.0 9.0 0.00 0.00 0.00 62 1017.5
20260505151332 71 223 5.0 9.0 0.00 0.00 0.00 61 1017.5
20260505150850 71 182 2.0 11.0 0.00 0.00 0.00 63 1017.5
20260505150408 70 166 4.0 11.0 0.00 0.00 0.00 62 1017.5
20260505140343 67 224 3.0 10.0 0.00 0.00 0.00 67 1017.2